SENTINEL-2C

Last updated on Mon Sep 07 2026 00:02:46 GMT+0000 (Coordinated Universal Time)

1 60989U 24157A 26249.15154407 .00000028 00000+0 27485-4 0 9990 2 60989 98.5634 322.7637 0001417 94.1301 266.0044 14.30818408104565
UTC large
Height (km)
Speed (km/s)
/
Latitude / Longitude
Inclination (degrees)
Orbital Period (minutes)
Azimuth
Elevation
Range (km)
Doppler Factor

Next 0 passes for location: London (51.5072 / 0.1276)

No passes found over London.
SENTINEL-2C